Tracking 19199 objects as of 25-Jun-2018
HD Live streaming from Space Station
objects crossing your sky now

TECHSAT 1B

Track TECHSAT 1B now!
10-day predictions
TECHSAT 1B is classified as:


NORAD ID: 25397
Int'l Code: 1998-043D
Perigee: 818.9 km
Apogee: 821.4 km
Inclination: 98.7 °
Period: 101.1 minutes
Semi major axis: 7191 km
RCS: 0.1942 m2 (medium)
Launch date: July 10, 1998
Source: Israel (ISRA)
Launch site: TYURATAM MISSILE AND SPACE COMPLEX (TTMTR)
Uplink (MHz): 145.850/145.930
Downlink (MHz): 435.225
Beacon (MHz): 435.325
Mode: 9600bps FSK
Call sign: 4XTECH-11 -12
Status: Active


In February 2004 all scientific investigations were completed and the satellite was turned over to amateur radio completely with 90% of power intact.
aabbcc
Your satellite tracking list
Your tracking list is empty




NASA's NSSDC Master Catalog

Two Line Element Set (TLE):
1 25397U 98043D   18175.83282974 -.00000024  00000-0  83927-5 0  9996
2 25397  98.6501 116.1449 0001755  40.3566 319.7742 14.23647398 36813
Source of the keplerian elements: Caltech